Sheboygan, WI

7:12 PM CDT on April 27, 2017 (GMT -0500)
Sheboygan County Memorial

Weather History for KSBM - October, 2011

Change the Weather History Date:

Friday, October 28, 2011

  Actual Average Record
Temperature  
Mean Temperature 38 °F -  
Max Temperature 53 °F 54 °F 68 °F (1983)
Min Temperature 26 °F 39 °F 26 °F (2005)
Degree Days  
Heating Degree Days 26    
Moisture  
Dew Point 30 °F    
Average Humidity 70    
Maximum Humidity 100    
Minimum Humidity 32    
Precipitation  
Precipitation 0.00 in - - ()
Sea Level Pressure  
Sea Level Pressure 30.09 in    
Wind  
Wind Speed 1 mph (SW)    
Max Wind Speed 6 mph    
Max Gust Speed -    
Visibility 9 miles    
Events      
Averages and records for this station are not official NWS values.
T = Trace of Precipitation, MM = Missing Value Source: NWS Daily Summary

Daily Weather History Graph

Daily Weather History Graph

Search for Another Location

Airport or City:

Trip Planner

Search our weather history database for the weather conditions in past years. The results will help you decide how hot, cold, wet, or windy it might be!

Date:

Astronomy

Oct. 28, 2011 Rise Set
Actual Time 7:21 AM CDT 5:47 PM CDT
Civil Twilight 6:52 AM CDT 6:17 PM CDT
Nautical Twilight 6:18 AM CDT 6:51 PM CDT
Astronomical Twilight 5:45 AM CDT 7:24 PM CDT
Moon 9:43 AM CDT 7:04 PM CDT
Length of Visible Light 11h 25m
Length of Day
10h 26m
Waxing Crescent, 5% of the Moon is Illuminated
Oct 28
Waxing Crescent
Nov 2
First Quarter
Nov 10
Full
Nov 18
Last Quarter
Nov 25
New

Hourly Weather History & Observations

Time (CDT) Temp. Windchill Dew Point Humidity Pressure Visibility Wind Dir Wind Speed Gust Speed Precip Events Conditions
12:53 AM 28.0 °F - 27.0 °F 96% 30.14 in 7.0 mi Calm Calm - N/A   Clear
1:53 AM 30.0 °F - 28.0 °F 92% 30.15 in 9.0 mi Calm Calm - N/A   Clear
3:53 AM 28.9 °F - 28.0 °F 96% 30.14 in 8.0 mi Calm Calm - N/A   Clear
4:53 AM 28.0 °F - 27.0 °F 96% 30.15 in 10.0 mi Calm Calm - N/A   Clear
5:53 AM 26.1 °F - 26.1 °F 100% 30.16 in 7.0 mi Calm Calm - N/A   Clear
6:53 AM 27.0 °F - 25.0 °F 92% 30.16 in 8.0 mi Calm Calm - N/A   Clear
7:53 AM 26.1 °F - 25.0 °F 96% 30.17 in 6.0 mi Calm Calm - N/A   Mostly Cloudy
8:53 AM 37.0 °F - 34.0 °F 89% 30.17 in 8.0 mi Calm Calm - N/A   Overcast
9:53 AM 41.0 °F 37.1 °F 36.0 °F 82% 30.16 in 10.0 mi SW 5.8 mph - N/A   Mostly Cloudy
10:53 AM 43.0 °F - 37.9 °F 82% 30.15 in 10.0 mi Calm Calm - 0.00 in   Overcast
11:53 AM 48.9 °F - 35.1 °F 59% 30.12 in 10.0 mi Calm Calm - N/A   Clear
12:53 PM 48.9 °F - 33.1 °F 54% 30.09 in 10.0 mi Calm Calm - N/A   Overcast
1:53 PM 50.0 °F - 28.0 °F 43% 30.08 in 10.0 mi West 5.8 mph - N/A   Overcast
2:53 PM 50.0 °F - 26.1 °F 39% 30.06 in 10.0 mi West 5.8 mph - N/A   Mostly Cloudy
3:53 PM 51.1 °F - 21.9 °F 32% 30.04 in 10.0 mi West 5.8 mph - N/A   Partly Cloudy
4:53 PM 51.1 °F - 25.0 °F 36% 30.04 in 10.0 mi Calm Calm - N/A   Overcast
5:53 PM 46.9 °F - 30.0 °F 52% 30.04 in 10.0 mi Calm Calm - N/A   Overcast
6:53 PM 46.9 °F - 27.0 °F 46% 30.04 in 10.0 mi SE 3.5 mph - N/A   Overcast
7:53 PM 46.0 °F 43.9 °F 28.9 °F 51% 30.04 in 10.0 mi SSE 4.6 mph - N/A   Overcast
8:53 PM 46.0 °F 43.1 °F 30.9 °F 56% 30.03 in 10.0 mi SW 5.8 mph - N/A   Overcast
9:53 PM 44.1 °F 41.5 °F 33.1 °F 65% 30.02 in 10.0 mi SW 4.6 mph - 0.00 in   Overcast
10:53 PM 42.1 °F 38.4 °F 34.0 °F 73% 30.02 in 10.0 mi WSW 5.8 mph - N/A   Overcast
11:53 PM 39.9 °F 37.8 °F 34.0 °F 79% 30.00 in 10.0 mi WSW 3.5 mph - 0.00 in   Partly Cloudy